TimeEST,TemperatureF,Dew PointF,Humidity,Sea Level PressureIn,VisibilityMPH,Wind Direction,Wind SpeedMPH,Gust SpeedMPH,PrecipitationIn,Events,Conditions,WindDirDegrees,DateUTC
12:15 AM,37.6,30.2,75,30.01,10.0,Calm,Calm,-,N/A,,Clear,0,2013-02-15 05:15:00
12:35 AM,37.0,30.6,77,30.01,10.0,South,3.5,-,N/A,,Clear,190,2013-02-15 05:35:00
12:55 AM,36.7,31.1,80,30.01,10.0,Calm,Calm,-,N/A,,Clear,0,2013-02-15 05:55:00
1:35 AM,36.5,31.5,82,30.01,7.0,Calm,Calm,-,N/A,,Scattered Clouds,0,2013-02-15 06:35:00
1:55 AM,36.5,31.6,83,30.01,7.0,Calm,Calm,-,N/A,,Mostly Cloudy,0,2013-02-15 06:55:00
2:15 AM,36.5,32.0,84,30.00,7.0,WSW,3.5,-,N/A,,Overcast,250,2013-02-15 07:15:00
2:35 AM,37.0,32.0,82,30.00,7.0,WSW,3.5,-,N/A,,Overcast,240,2013-02-15 07:35:00
2:55 AM,37.0,32.0,82,29.99,7.0,Calm,Calm,-,N/A,,Overcast,0,2013-02-15 07:55:00
3:15 AM,36.9,32.0,83,30.01,7.0,WSW,3.5,-,N/A,,Scattered Clouds,240,2013-02-15 08:15:00
3:35 AM,36.1,31.8,84,30.00,7.0,Calm,Calm,-,N/A,,Clear,0,2013-02-15 08:35:00
3:55 AM,36.5,32.0,84,30.00,7.0,WSW,3.5,-,N/A,,Clear,240,2013-02-15 08:55:00
4:15 AM,36.5,32.0,84,30.00,7.0,WSW,3.5,-,N/A,,Clear,250,2013-02-15 09:15:00
4:35 AM,36.7,31.8,83,30.01,7.0,Calm,Calm,-,N/A,,Clear,0,2013-02-15 09:35:00
4:55 AM,36.5,32.0,84,30.01,7.0,Calm,Calm,-,N/A,,Clear,0,2013-02-15 09:55:00
5:15 AM,35.8,31.8,86,30.00,7.0,Calm,Calm,-,N/A,,Clear,0,2013-02-15 10:15:00
5:35 AM,35.4,31.6,86,30.00,7.0,Calm,Calm,-,N/A,,Clear,0,2013-02-15 10:35:00
5:55 AM,35.1,31.8,88,30.00,7.0,Calm,Calm,-,N/A,,Clear,0,2013-02-15 10:55:00
6:15 AM,34.9,31.5,87,29.99,7.0,Calm,Calm,-,N/A,,Clear,0,2013-02-15 11:15:00
6:35 AM,35.2,31.8,87,30.00,7.0,WSW,3.5,-,N/A,,Clear,240,2013-02-15 11:35:00
6:55 AM,35.1,31.6,87,30.00,7.0,Calm,Calm,-,N/A,,Clear,0,2013-02-15 11:55:00
7:15 AM,34.7,31.6,89,30.01,4.0,Calm,Calm,-,N/A,,Clear,0,2013-02-15 12:15:00
7:35 AM,34.9,31.8,89,30.01,4.0,Calm,Calm,-,N/A,,Clear,0,2013-02-15 12:35:00
7:55 AM,36.0,32.0,86,30.02,5.0,WSW,3.5,-,N/A,,Clear,240,2013-02-15 12:55:00
8:15 AM,37.2,32.2,82,30.02,5.0,WSW,3.5,-,N/A,,Haze,240,2013-02-15 13:15:00
8:35 AM,38.3,32.5,80,30.02,5.0,WSW,4.6,-,N/A,,Haze,240,2013-02-15 13:35:00
9:15 AM,40.6,33.3,75,30.01,7.0,SW,3.5,-,N/A,,Clear,230,2013-02-15 14:15:00
9:35 AM,41.5,33.4,73,30.02,7.0,WSW,5.8,-,N/A,,Clear,250,2013-02-15 14:35:00
10:15 AM,43.9,33.6,67,30.02,10.0,WSW,5.8,-,N/A,,Clear,240,2013-02-15 15:15:00
10:35 AM,45.0,33.6,64,30.02,10.0,West,6.9,-,N/A,,Clear,270,2013-02-15 15:35:00
10:55 AM,46.0,33.3,61,30.02,10.0,West,6.9,-,N/A,,Clear,260,2013-02-15 15:55:00
11:15 AM,46.8,33.3,59,30.02,10.0,West,6.9,-,N/A,,Clear,270,2013-02-15 16:15:00
11:35 AM,48.2,33.6,57,30.01,10.0,West,10.4,-,N/A,,Clear,270,2013-02-15 16:35:00
11:55 AM,49.1,32.5,53,30.00,10.0,West,6.9,-,N/A,,Clear,260,2013-02-15 16:55:00
12:15 PM,50.9,32.7,50,29.99,10.0,WSW,5.8,-,N/A,,Clear,250,2013-02-15 17:15:00
12:35 PM,52.7,33.1,47,29.98,10.0,West,8.1,-,N/A,,Clear,260,2013-02-15 17:35:00
12:55 PM,53.1,32.9,46,29.97,10.0,WSW,5.8,-,N/A,,Clear,240,2013-02-15 17:55:00
1:15 PM,54.0,33.1,45,29.96,10.0,SW,6.9,-,N/A,,Clear,220,2013-02-15 18:15:00
1:35 PM,55.8,32.2,41,29.95,10.0,WSW,5.8,-,N/A,,Clear,250,2013-02-15 18:35:00
1:55 PM,56.3,31.6,39,29.94,10.0,WSW,10.4,-,N/A,,Clear,240,2013-02-15 18:55:00
2:15 PM,56.8,30.6,37,29.93,10.0,WSW,10.4,18.4,N/A,,Clear,240,2013-02-15 19:15:00
2:35 PM,57.7,31.5,37,29.93,10.0,West,11.5,16.1,N/A,,Clear,270,2013-02-15 19:35:00
2:55 PM,57.2,30.9,37,29.93,10.0,WSW,8.1,-,N/A,,Scattered Clouds,240,2013-02-15 19:55:00
3:15 PM,57.6,31.6,37,29.92,10.0,SW,4.6,-,N/A,,Scattered Clouds,220,2013-02-15 20:15:00
3:35 PM,56.7,30.9,38,29.92,10.0,WSW,9.2,-,N/A,,Clear,250,2013-02-15 20:35:00
3:55 PM,56.8,31.6,38,29.92,10.0,West,9.2,-,N/A,,Scattered Clouds,260,2013-02-15 20:55:00
4:15 PM,56.7,31.6,39,29.92,10.0,WSW,6.9,-,N/A,,Clear,240,2013-02-15 21:15:00
4:35 PM,56.3,31.3,39,29.92,10.0,West,10.4,-,N/A,,Clear,270,2013-02-15 21:35:00
4:55 PM,55.0,31.5,41,29.92,10.0,WSW,5.8,9.2,N/A,,Scattered Clouds,250,2013-02-15 21:55:00
5:15 PM,55.4,31.1,40,29.92,10.0,West,5.8,-,N/A,,Mostly Cloudy,260,2013-02-15 22:15:00
5:35 PM,54.0,32.4,44,29.92,10.0,WNW,5.8,-,N/A,,Overcast,290,2013-02-15 22:35:00
5:55 PM,53.1,31.8,44,29.92,10.0,WNW,5.8,-,N/A,,Overcast,300,2013-02-15 22:55:00
6:15 PM,52.3,31.3,45,29.92,10.0,WNW,3.5,-,N/A,,Mostly Cloudy,300,2013-02-15 23:15:00
6:35 PM,52.2,30.2,43,29.92,10.0,NNW,3.5,-,N/A,,Mostly Cloudy,330,2013-02-15 23:35:00
6:55 PM,51.6,30.2,44,29.91,10.0,NNW,3.5,-,N/A,,Mostly Cloudy,330,2013-02-15 23:55:00
7:15 PM,50.2,30.7,47,29.92,10.0,Calm,Calm,-,N/A,,Mostly Cloudy,0,2013-02-16 00:15:00
7:35 PM,50.4,30.2,46,29.92,10.0,NW,3.5,-,N/A,,Mostly Cloudy,320,2013-02-16 00:35:00
7:55 PM,50.0,29.3,45,29.92,10.0,Calm,Calm,-,N/A,,Mostly Cloudy,0,2013-02-16 00:55:00
8:15 PM,48.7,34.3,58,29.93,10.0,South,3.5,-,N/A,,Overcast,170,2013-02-16 01:15:00
8:35 PM,48.7,33.1,55,29.93,10.0,Calm,Calm,-,N/A,,Overcast,0,2013-02-16 01:35:00
8:55 PM,48.7,32.9,54,29.93,10.0,Calm,Calm,-,N/A,,Overcast,0,2013-02-16 01:55:00
9:15 PM,48.6,32.4,54,29.93,10.0,NW,3.5,-,N/A,,Overcast,310,2013-02-16 02:15:00
9:35 PM,48.4,30.4,50,29.93,10.0,WNW,6.9,-,N/A,,Overcast,300,2013-02-16 02:35:00
9:55 PM,48.2,29.7,49,29.94,10.0,WNW,5.8,-,N/A,,Overcast,290,2013-02-16 02:55:00
10:15 PM,47.5,29.5,50,29.95,10.0,WNW,5.8,-,N/A,,Overcast,300,2013-02-16 03:15:00
10:35 PM,47.3,29.3,50,29.95,10.0,WNW,6.9,-,N/A,,Overcast,300,2013-02-16 03:35:00
10:55 PM,47.3,28.4,48,29.96,10.0,WNW,8.1,-,N/A,,Overcast,300,2013-02-16 03:55:00
11:15 PM,45.5,30.9,57,29.96,10.0,NW,13.8,17.3,N/A,,Overcast,310,2013-02-16 04:15:00
11:35 PM,43.9,32.2,63,29.96,10.0,NW,11.5,-,N/A,,Overcast,310,2013-02-16 04:35:00
11:55 PM,43.0,33.1,68,29.97,10.0,NW,13.8,-,N/A,,Overcast,310,2013-02-16 04:55:00